Simultaneous Nadir Overpasses (SNOs) Predictions

Prediction of SNOs between GOES-15 and NPP Satellite Orbit:

Table of predicted SNOs for the next 14.0 days since TLE Epoch: 8/30/2015
Index Date Time (GOES-15) GOES-15 Lat,Lon NPP Lat,Lon Distance(km) Time Diff (sec)
1 08/30/2015 22:27:33 -0.38,-135.07 -0.22,-134.37 80.44 80
2 09/02/2015 10:30:34 0.37,-135.11 0.36,-135.11 2.01 80
3 09/04/2015 22:31:03 -0.37,-135.17 -0.51,-135.88 80.91 80
4 09/05/2015 22:14:57 -0.37,-135.18 0.52,-131.35 437.56 80
5 09/07/2015 10:36:44 0.36,-135.19 0.65,-136.62 162.56 80
6 09/08/2015 10:15:17 0.36,-135.20 -0.33,-132.08 355.43 80
7 09/09/2015 22:37:12 -0.34,-135.23 -0.80,-137.39 245.57 80
8 09/10/2015 22:21:06 -0.35,-135.24 0.18,-132.85 272.58 80
9 09/12/2015 10:40:12
